This is the latest recevied weather packets stored in our database for station/object K1BES. If no packets are shown the sender has not sent any weather packets the latest 10 day(s).
| Time | Temp. | Humidity | Pressure | Rain* | Wind** | Luminosity | Snow |
|---|---|---|---|---|---|---|---|
| 1787767905 | 35° C | 57% | 1018.6 hPa | 0 mm | - | 996 W/m² | - |
| 1787767600 | 35° C | 59% | 1018.8 hPa | 0 mm | - | 1000 W/m² | - |
| 1787767300 | 35° C | 59% | 1018.8 hPa | 0 mm | - | 1005 W/m² | - |
| 1787766998 | 35° C | 61% | 1019.1 hPa | 0 mm | - | 1007 W/m² | - |
| 1787766698 | 34.44° C | 60% | 1019.1 hPa | 0 mm | - | 1010 W/m² | - |
| 1787766398 | 35° C | 61% | 1019.1 hPa | 0 mm | - | 1015 W/m² | - |
| 1787766097 | 35° C | 59% | 1019.4 hPa | 0 mm | - | 1023 W/m² | - |
| 1787765793 | 35° C | 60% | 1019.1 hPa | 0 mm | - | 996 W/m² | - |
| 1787765490 | 35° C | 59% | 1019.2 hPa | 0 mm | - | 1089 W/m² | - |
| 1787765189 | 34.44° C | 61% | 1019.3 hPa | 0 mm | - | 1030 W/m² | - |
| 1787764884 | 34.44° C | 62% | 1019.3 hPa | 0 mm | - | 1019 W/m² | - |
| 1787764579 | 34.44° C | 62% | 1019.5 hPa | 0 mm | - | 1014 W/m² | - |
| 1787764274 | 34.44° C | 62% | 1019.5 hPa | 0 mm | - | 1010 W/m² | - |
| 1787763970 | 34.44° C | 63% | 1019.5 hPa | 0 mm | - | 1021 W/m² | - |
| 1787763665 | 34.44° C | 60% | 1019.2 hPa | 0 mm | - | 741 W/m² | - |
| 1787763361 | 35° C | 60% | 1019.7 hPa | 0 mm | - | 1078 W/m² | - |
| 1787763060 | 35° C | 61% | 1019.5 hPa | 0 mm | - | 1056 W/m² | - |
| 1787762760 | 34.44° C | 62% | 1019.6 hPa | 0 mm | - | 1091 W/m² | - |
| 1787762460 | 33.89° C | 66% | 1019.6 hPa | 0 mm | - | 1011 W/m² | - |
| 1787762156 | 33.33° C | 66% | 1019.8 hPa | 0 mm | - | 799 W/m² | - |
| 1787761852 | 32.78° C | 66% | 1020 hPa | 0 mm | - | 676 W/m² | - |
| 1787761547 | 33.33° C | 65% | 1019.9 hPa | 0 mm | - | 411 W/m² | - |
| 1787761242 | 33.89° C | 61% | 1019.8 hPa | 0 mm | - | 449 W/m² | - |
| 1787760941 | 33.89° C | 61% | 1020.1 hPa | 0 mm | - | 484 W/m² | - |
| 1787760639 | 33.89° C | 60% | 1020 hPa | 0 mm | - | 890 W/m² | - |
* Rain latest hour (hover to see other rain measurements)
** Current wind speed in m/s (hover to see current wind gust speed)